Regional Weather Roundup
Issued by NWS Cleveland, OH

Home | Current Version | Previous Version | Graphics & Text | Print | Product List | Glossary On
Versions: 1 2 3 4 5 6 7 8 9 10 11 12 13 14 15 16 17 18 19 20 21 22 23 24 25 26 27 28 29 30 31 32 33 34 35 36 37 38 39 40 41 42 43 44 45 46 47 48 49 50
000
ASUS41 KCLE 110100
RWRCLE
OHIO REGIONAL WEATHER ROUNDUP
NATIONAL WEATHER SERVICE WILMINGTON, OH
900 PM EDT THU JUL 10 2014

NOTE: "FAIR" INDICATES FEW OR NO CLOUDS BELOW 12,000 FEET WITH NO
SIGNIFICANT WEATHER AND/OR OBSTRUCTIONS TO VISIBILITY.

OHZ001>008-015>018-024>027-034-035-043-044-110200-
   NORTHWEST OHIO

CITY           SKY/WX    TMP DP  RH WIND       PRES   REMARKS
DEFIANCE       CLEAR     71  55  56 N5        30.14S
FINDLAY        CLEAR     73  58  59 NE7       30.14R
TOLEDO EXPRESS CLEAR     70  57  63 NE5       30.14R
TOLEDO METCALF CLEAR     71  57  61 E3        30.15R
LIMA           CLEAR     73  55  53 N5        30.14S
$$

OHZ009>014-019>023-028>033-038-089-110200-
   NORTHEAST OHIO

CITY           SKY/WX    TMP DP  RH WIND       PRES   REMARKS
CLE-HOPKINS    PTCLDY    71  56  58 N7        30.16R
CLE-LAKEFRONT  CLEAR     71  58  63 NE10      30.12R
CUY CO. ARPT   PTCLDY    70  59  68 E7        30.15R
LORAIN-ELYRIA  CLEAR     72  60  66 NE6       30.15R
ASHTABULA      CLEAR     66  54  65 CALM      30.16R
AKRON-CANTON   PTCLDY    71  58  63 N9        30.14R
WOOSTER        NOT AVBL
MANSFIELD      CLEAR     69  57  65 N6        30.16R
YOUNGSTOWN     PTCLDY    69  58  67 N8        30.15R
$$

OHZ042-051>053-060>062-070>072-077>081-110200-
  SOUTHWEST OHIO

CITY           SKY/WX    TMP DP  RH WIND       PRES   REMARKS
CINC-COVINGTON PTCLDY    75  55  49 N8        30.12R
CINC-LUNKEN    PTCLDY    74  59  59 NE5       30.11R
HAMILTON       CLEAR     75  57  53 N6        30.13R
DAYTON         NOT AVBL
WRIGHT-PAT AFB CLEAR     74  57  55 N7        30.13R
DAYTON GENERAL CLEAR     73  56  54 N7        30.13R
WILMINGTON     CLEAR     72  58  61 N6        30.13R
$$

OHZ036-037-039>041-045>050-054>059-063>069-073>076-082>088-110200-
  CENTRAL AND SOUTHEAST OHIO

CITY           SKY/WX    TMP DP  RH WIND       PRES   REMARKS
COLUMBUS       PTCLDY    76  55  48 N8        30.12R
OSU AIRPORT    CLEAR     72  56  57 N7        30.13R
BOLTON FIELD   NOT AVBL
RICKENBACK AFB NOT AVBL
NEWARK         PTCLDY    74  57  55 CALM      30.12R
MARION         CLEAR     72  56  57 N5        30.14R
LANCASTER      CLEAR     71  60  68 N3        30.12R
ZANESVILLE     CLEAR     74  59  59 NW3       30.11R
NEW PHILLY     PTCLDY    73  60  63 N5        30.13R
$$



USA.gov is the U.S. government's official web portal to all federal, state and local government web resources and services.